GB-0028 weather

Morn Farm Helipad (Private)
Chickerell, England, United Kingdom

Public forecast

Using degrees Celsius for public forecast. Weather courtesy of forecast.io.

Closest aviation weather report (METAR) to Morn Farm Helipad (Private)

Closest report is RNAS Yeovilton, 23.6 nm (43.6 km) NNW. Retrieved 2020/08/05 03:50 UTC (22 minutes ago):

EGDY 050350Z AUTO 21012KT 9999 OVC007/// 17/15 Q1012

Closest aviation forecast (TAF) to Morn Farm Helipad (Private)

Forecast is more than 12 hours old.

Closest forecast is RNAS Yeovilton, 23.6 nm (43.6 km) NNW. Retrieved 2020/07/01 18:15 UTC (1 month ago):

TAF TAF EGDY 010110Z 3018/0103 CNL